Location: Erfurt
(50.9688°N, 11.0193°E)
Time: 00:54:11
(UTC+01:00)

OTV 5 (USA 277) - Visible Passes

Search period start: 25 February 2018 00:00
Search period end: 07 March 2018 00:00
Orbit: 404 x 417 km, 43.0° (Epoch: 07 September)

Date Brightness Start Highest point End Pass type
(mag) Time Alt. Az. Time Alt. Az. Time Alt. Az.
25 Feb ? 05:47:48 12° SSW 05:49:50 18° S 05:52:13 10° SE visible
26 Feb ? 04:59:06 16° SSE 04:59:06 16° SSE 05:01:06 10° SE visible
27 Feb ? 05:43:07 15° SW 05:44:41 21° S 05:47:14 10° SE visible
28 Feb ? 04:54:23 19° SSE 04:54:23 19° SSE 04:56:16 10° SE visible
01 Mar ? 05:38:23 16° SW 05:39:33 19° S 05:41:58 10° SE visible
02 Mar ? 04:49:40 18° SSE 04:49:40 18° SSE 04:51:09 10° SE visible
02 Mar ? 06:23:51 10° SW 06:25:13 12° SSW 06:26:34 10° S visible
03 Mar ? 05:33:44 14° SSW 05:34:22 15° SSW 05:36:17 10° SSE visible
04 Mar ? 04:45:06 13° SSE 04:45:06 13° SSE 04:45:43 10° SSE visible
